User: anonymous   Login
Location: Unspecified
(0.0000°N, 0.0000°E)
Time: 20:47:38
(UTC+00:00)
Language:

STARLINK-6357 - Orbit

View from above orbital plane
View from above orbital plane
View from above satellite
View from above satellite

Ground track
Ground track

The orbit is defined by the following mean orbital elements,

1 56783U          26145.34432446 +.00000000 +00000-0 -35630-5 0 00003
2 56783  69.9986 131.2635 0003775 263.8523  96.2206 14.98330821    04
Epoch (UTC): 25 May 2026 08:15:49
Eccentricity: 0.0003775
inclination: 69.9986°
perigee height: 569 km
apogee height: 575 km
right ascension of ascending node: 131.2635°
argument of perigee: 263.8523°
revolutions per day: 14.98330821
mean anomaly at epoch: 96.2206°

The dashed part of the orbit path shows where the satellite is in the earth's shadow,  

DLR